Location: La Brionne
(46.1728°N, 1.7849°E)
Time: 02:59:45
(UTC+00:00)

Cosmos 2219 Rocket - Pass Details

Date: 30 October 2021
Orbit: 827 x 848 km, 71.0° (Epoch: 26 November)

Event Time Altitude Azimuth Distance (km) Brightness Sun altitude
Rises 18:14:36 0° 199° (SSW) 3,354 5.6 -16.6°
Reaches altitude 10° 18:17:01 10° 198° (SSW) 2,426 4.8 -17.0°
Maximum altitude 18:22:34 77° 114° (ESE) 858 2.1 -18.0°
Drops below altitude 10° 18:28:11 10° 29° (NNE) 2,455 4.3 -19.0°
Enters shadow 18:28:16 10° 29° (NNE) 2,481 4.4 -19.0°
